Location: Buchen Lhota
(49.8149°N, 14.6515°E)
Time: 05:50:34
(UTC+00:00)

Daily predictions for brighter satellites

Satellite Brightness Start Highest point End
(mag) Time Altitude Azimuth Time Altitude Azimuth Time Altitude Azimuth
ADEOS II 4.3 00:01:04 10° NE 00:04:13 16° E 00:06:31 12° ESE
Geosat 3.9 00:06:04 75° W 00:06:04 75° W 00:10:56 10° NNW
Cosmos 1538 Rocket 4.0 00:06:03 71° SE 00:06:18 73° ESE 00:11:36 10° NNE
Nadezhda 4 Rocket 4.5 00:06:15 40° SE 00:07:54 50° E 00:13:46 10° NNE
Cosmos 1943 Rocket 2.5 00:02:25 10° NNW 00:08:05 63° ENE 00:10:24 35° SE
SL-16 R/B 4.4 00:06:31 10° W 00:10:25 19° NW 00:14:21 10° N
ATLAS 5 CENTAUR R/B 2.8 00:07:40 10° NW 00:12:12 49° NE 00:17:48 10° ESE
RESURS DK-1 2.8 00:13:30 58° NNE 00:13:30 58° NNE 00:16:50 10° NNE
Cosmos 972 Rocket 4.1 00:12:33 58° W 00:12:51 59° WNW 00:17:45 10° NNE
Meteor 1-14 Rocket 4.1 00:08:25 10° NNW 00:13:57 71° W 00:14:22 68° SW
SL-16 R/B 4.1 00:13:06 15° ESE 00:14:58 17° E 00:18:34 10° ENE
Okean 3 Rocket 3.8 00:11:31 10° NNW 00:15:30 63° NW 00:15:30 63° NW
Cosmos 1408 Rocket 3.7 00:13:47 10° N 00:17:59 70° ENE 00:17:59 70° ENE
NOSS 2-2 (D) 4.5 00:15:20 10° NW 00:18:12 42° WNW 00:18:12 42° WNW
MOZ.5/SAFIR/RUBIN 5/SL-8 3.7 00:20:51 78° SE 00:21:07 83° ENE 00:25:53 10° NNW
CZ-2C R/B 3.7 00:18:46 20° SE 00:22:03 40° ENE 00:26:58 10° N
IRIDIUM 106 4.2 00:17:05 10° N 00:22:21 86° E 00:22:58 70° SSE
SL-16 R/B 4.0 00:17:14 10° ESE 00:22:41 34° ENE 00:28:11 10° N
Sich 1 3.6 00:20:11 10° N 00:24:20 50° ENE 00:24:45 48° E
GEOS 3 Rocket 4.4 00:20:42 10° ESE 00:25:51 51° NE 00:30:58 10° NW
Cosmos 1842 Rocket 3.6 00:27:32 74° NW 00:27:32 74° NW 00:31:49 10° N
NPP 4.3 00:24:02 10° NNE 00:29:13 45° E 00:30:40 37° SE
Okean 1 4.0 00:30:28 46° ENE 00:30:28 46° ENE 00:33:47 10° NNE
Cosmos 2344 4.0 00:21:49 10° NW 00:30:08 73° SW 00:41:40 10° SSE
Cosmos 192 4.3 00:26:17 10° NNW 00:30:51 63° W 00:30:51 63° W
USA 215 3.5 00:26:14 10° ENE 00:32:38 53° SE 00:34:08 45° S
Cosmos 1536 3.2 00:32:17 10° NNW 00:35:23 56° NNW 00:35:23 56° NNW
Meteor 1-10 Rocket 4.3 00:35:14 54° S 00:36:41 84° ESE 00:42:37 10° NNE
NOSS 3-1 (C) 4.2 00:31:54 10° NW 00:38:56 74° NE 00:47:36 10° SE
Cosmos 1500 Rocket 3.4 00:34:34 10° N 00:39:02 86° ENE 00:39:12 83° SE
Cosmos 1733 3.8 00:36:12 10° N 00:39:33 48° ENE 00:39:33 48° ENE
Lacrosse 5 3.3 00:35:57 10° WNW 00:40:42 37° N 00:45:28 10° ENE
Cosmos 1805 Rocket 3.5 00:36:23 10° N 00:40:44 74° E 00:41:03 70° ESE
Meteor 1-11 Rocket 3.5 00:35:49 10° NNW 00:41:23 82° WSW 00:42:35 56° S
Cosmos 923 Rocket 4.1 00:40:34 54° SSE 00:41:32 65° ESE 00:46:47 10° NNE
H-2A R/B 3.6 00:37:33 10° NNE 00:41:37 62° ESE 00:41:39 62° ESE
ATLAS 3B R/B 3.8 00:38:11 10° NW 00:45:48 53° NE 00:53:26 10° ESE
NOSS 0 Rocket 3.9 00:45:55 49° SW 00:47:40 75° WNW 00:53:52 10° NNE
MSX 4.1 00:47:35 10° NNE 00:53:20 62° ESE 00:55:32 37° SSE
Cosmos 2026 Rocket 4.4 00:53:06 31° SSE 00:56:11 62° E 01:02:29 10° NNE
Cosmos 1371 Rocket 4.0 00:51:40 10° NNW 00:56:57 82° ENE 00:59:42 29° SSE
Gbstr 26 Del rocket 3.2 00:57:32 37° WNW 00:59:08 66° N 01:03:04 10° E
Meteor 2-17 Rocket 4.3 00:57:56 45° SSW 00:59:58 82° W 01:06:06 10° N
Cosmos 1092 Rocket 4.2 00:58:01 32° SSE 01:00:54 66° E 01:07:02 10° NNE
Cosmos 2369 Rocket 3.5 00:55:40 10° NNW 01:00:58 40° NE 01:06:13 10° ESE
Cosmos 2237 Rocket 2.2 00:59:39 49° SW 01:01:15 78° WNW 01:06:59 10° NNE
IDEFIX/ARIANE 42P 2.5 00:57:07 10° NNE 01:02:22 83° ESE 01:03:55 47° S
Cosmos 1980 3.7 01:02:35 46° SW 01:04:15 71° WNW 01:09:55 10° NNE
CZ-2C R/B 3.8 01:02:53 10° NNE 01:08:04 50° E 01:10:56 26° SSE
CZ-2D R/B 2.2 01:02:50 10° NNE 01:08:16 73° ESE 01:10:23 38° S
USA 267 3.1 01:02:00 10° SE 01:08:30 81° SSW 01:15:05 10° WNW
Cosmos 2297 4.3 01:03:54 10° NNW 01:09:36 58° NE 01:15:16 10° SE
Cosmos 1626 4.1 01:09:30 16° ESE 01:10:44 19° E 01:13:10 10° NE
Cosmos 1151 Rocket 3.0 01:10:36 54° S 01:11:31 78° E 01:15:54 10° NNE
Cosmos 921 Rocket 3.5 01:11:48 40° SSE 01:12:57 52° ESE 01:17:14 10° NNE
Cosmos 1975 3.3 01:09:52 10° N 01:13:42 56° ENE 01:15:11 33° SE
USA 308 2.4 01:14:03 85° SSE 01:14:04 85° SSE 01:17:59 10° ENE
Cosmos 1633 Rocket 3.8 01:10:51 10° N 01:15:06 49° ENE 01:18:04 18° SE
Meteor 2-9 Rocket 4.2 01:10:38 10° NNW 01:15:59 58° W 01:17:36 41° SSW
COSMOS 2428 3.9 01:13:36 23° W 01:16:08 32° NW 01:21:13 10° NNE
Cosmos 1743 Rocket 3.7 01:12:53 10° NNW 01:17:04 51° W 01:17:16 50° WSW
Cosmos 1726 4.2 01:17:15 10° NW 01:17:55 14° NW 01:17:55 14° NW
Resurs 1-4 Rocket 2.0 01:14:55 10° NNE 01:20:15 87° WNW 01:22:17 39° SSW
Cosmos 2112 Rocket 4.0 01:19:51 41° SSW 01:21:48 87° ESE 01:27:11 10° NNE
Meteor 2-4 Rocket 4.1 01:22:13 25° SSE 01:25:26 61° E 01:31:01 10° NNE
BREEZE-M DEB (TANK) 1.9 01:27:26 54° E 01:27:26 54° E 01:29:04 10° ENE
Cosmos 2219 Rocket 4.3 01:23:20 10° WNW 01:27:05 18° NW 01:30:51 10° N
FENGYUN 3A 3.9 01:24:18 10° NNE 01:29:43 67° ESE 01:32:49 26° S
Meteor 1-19 Rocket 4.5 01:28:26 35° SW 01:31:00 64° WNW 01:37:02 10° N
Cosmos 2278 Rocket 3.6 01:29:03 10° NW 01:32:30 20° W 01:32:30 20° W
Geosat FO 4.2 01:32:17 10° NNE 01:35:36 75° WNW 01:35:56 65° WSW
UNK 4.1 01:32:08 10° SSE 01:36:41 65° ENE 01:41:17 10° N
IRAS Rocket 4.4 01:33:39 10° NNE 01:39:17 72° ESE 01:42:49 23° S
USA 290 2.1 01:36:54 10° NNW 01:40:09 69° WSW 01:40:17 67° SW
COBE Rocket 3.9 01:37:02 10° N 01:41:35 56° WNW 01:43:14 35° SW
ADEOS II 2.0 01:39:15 10° NNE 01:44:32 84° WNW 01:47:24 28° SSW
Cosmos 1680 Rocket 3.8 01:42:34 32° SW 01:44:51 56° WNW 01:50:06 10° NNE
Meteor 1-28 Rocket 3.2 01:49:06 43° SSW 01:49:57 54° W 01:53:32 10° NNW
Cosmos 1943 Rocket 3.2 01:46:50 10° NW 01:51:22 25° WSW 01:51:50 25° WSW
ATLAS 2AS CENTAUR R/B 2.8 01:49:36 25° SW 01:54:13 84° NW 02:01:22 10° NE
Cosmos 1110 Rocket 4.2 01:49:21 10° NNW 01:54:38 75° ENE 01:59:57 10° SSE
ATLAS 5 CENTAUR R/B 2.5 01:51:31 10° NW 01:56:12 40° WSW 02:01:53 10° S
Cosmos 2056 Rocket 4.2 01:51:31 10° NW 01:56:26 36° WSW 01:58:37 26° SW
S3M 4.4 01:50:18 10° N 01:56:28 64° ENE 02:02:40 10° SSE
SL-16 R/B 2.2 01:54:58 26° SSW 01:58:18 86° WNW 02:04:01 10° NNE
CZ-2C R/B 3.3 02:00:15 26° SW 02:02:21 35° W 02:07:12 10° NNW
GP-B 3.9 01:58:27 10° NNW 02:02:27 34° W 02:03:57 27° WSW
Cosmos 1340 Rocket 3.2 02:01:32 32° WSW 02:02:50 44° WNW 02:06:38 10° N
Cosmos 1452 Rocket 3.5 01:57:43 10° NNW 02:03:01 88° ENE 02:08:15 10° SSE
GEOS 3 Rocket 4.0 01:58:52 10° SSE 02:03:55 43° WSW 02:08:59 10° NW
SL-16 R/B 2.7 02:00:25 12° S 02:06:02 55° W 02:12:10 10° NNW
ALOS 2.2 02:02:19 10° NNE 02:06:59 89° WNW 02:10:17 19° SSW
Cosmos 1515 Rocket 4.0 02:03:19 13° S 02:07:12 62° E 02:11:35 10° NNE
Meteor 1-18 Rocket 4.2 02:03:10 20° SSW 02:07:17 78° WNW 02:13:09 10° N
Envisat 3.8 02:04:53 10° NNE 02:09:49 49° E 02:14:43 10° S
Cosmos 1470 Rocket 3.5 02:06:08 10° NNW 02:10:34 74° W 02:15:00 10° S
Cosmos 1340 3.3 02:07:41 10° NNW 02:10:41 28° W 02:10:59 28° WSW
NOSS 3-1 (A) 4.0 02:04:49 10° NW 02:12:03 72° SW 02:20:49 10° SSE
Cosmos 1805 4.2 02:09:45 10° NNW 02:12:51 25° W 02:13:21 24° WSW
SOZ 4.5 02:12:38 34° WSW 02:13:33 86° S 02:16:43 10° ENE
USA 215 3.5 02:09:18 10° ENE 02:15:48 69° NNW 02:21:28 14° WSW
Intercosmos 25 Rocket 4.2 02:16:06 10° NNW 02:19:56 46° W 02:25:44 10° SSW
Cosmos 1331 Rocket 3.9 02:14:39 10° NNW 02:19:58 77° WSW 02:25:14 10° SSE
USA 229 DEB 4.3 02:14:30 10° NW 02:21:49 71° NE 02:29:48 10° SE
USA 229 4.3 02:14:36 10° NW 02:21:54 71° NE 02:29:52 10° SE
Cosmos 1666 Rocket 4.5 02:19:09 10° NNW 02:23:02 30° W 02:25:08 20° SW
Cosmos 1553 Rocket 4.2 02:18:02 10° NNW 02:23:59 49° W 02:29:51 10° SSW
Lacrosse 5 2.9 02:19:34 10° NW 02:24:33 47° NNE 02:29:29 10° E
METEOR-M 4.5 02:19:19 10° NNE 02:24:39 67° ESE 02:29:57 10° S
Cosmos 1674 2.5 02:28:15 11° S 02:31:30 76° E 02:34:57 10° NNE
DMSP B5D2-2 4.4 02:31:35 10° SSE 02:36:44 70° ENE 02:41:56 10° N
ATLAS 3B R/B 3.1 02:29:11 10° NW 02:36:48 56° WSW 02:44:18 10° SSE
Cosmos 1908 3.7 02:33:15 10° N 02:36:52 59° ENE 02:40:25 10° SSE
Cosmos 1933 Rocket 3.4 02:33:04 10° NNW 02:37:25 73° W 02:41:43 10° S
Cosmos 1655 Rocket 4.2 02:33:10 10° S 02:39:21 75° E 02:45:38 10° NNE
Cosmos 1656 Rocket 4.2 02:35:39 10° NW 02:40:30 34° WSW 02:45:21 10° S
IDEFIX/ARIANE 42P 4.3 02:37:46 10° NNW 02:41:16 19° NW 02:44:41 10° W
Cosmos 1470 2.6 02:37:48 10° NNW 02:41:37 77° W 02:45:23 10° S
Cosmos 2315 Rocket 4.0 02:35:57 10° N 02:42:11 90° SW 02:48:24 10° S
Cosmos 1626 3.0 02:42:31 17° WSW 02:44:18 27° WNW 02:47:10 10° NNW
Cosmos 2369 Rocket 2.6 02:39:47 10° NW 02:45:00 41° WSW 02:50:11 10° S
Gbstr 26 Del rocket 2.6 02:41:38 10° WNW 02:45:48 81° SSW 02:49:33 10° ESE
Cosmos 1066 Rocket 4.3 02:40:39 11° SSW 02:45:50 58° WNW 02:51:23 10° N
Cosmos 2237 Rocket 4.0 02:42:06 10° W 02:46:16 20° NW 02:50:29 10° N
USA 308 3.5 02:42:40 10° W 02:46:21 46° N 02:50:08 10° ENE
ISS -1.6 02:44:30 10° S 02:46:53 18° SE 02:49:17 10° E
CZ-2C R/B 4.2 02:43:09 10° N 02:47:41 30° WNW 02:51:58 12° WSW
CZ-2D R/B 3.6 02:43:43 10° N 02:47:46 22° WNW 02:51:41 11° WSW
KORONAS-FOTON 3.6 02:48:06 10° SSW 02:51:44 75° W 02:55:23 10° N
USA 267 4.0 02:46:43 10° S 02:52:11 28° SW 02:57:40 10° WNW
Resurs 1-4 Rocket 3.9 02:55:59 10° NNW 02:59:18 17° NW 03:02:36 10° W
Cosmos 44 3.3 02:55:03 10° NW 03:00:06 86° SW 03:04:48 10° SE
Cosmos 1943 3.3 03:04:35 10° SW 03:10:17 76° WNW 03:16:01 10° NNE
Thor Agena Rocket 3.5 03:09:05 10° NNE 03:14:08 73° WNW 03:19:11 10° SSW
Cosmos 1707 Rocket 4.5 03:11:33 10° S 03:15:43 51° E 03:19:57 10° NNE
CZ-2C R/B 2.7 03:14:49 10° N 03:19:55 59° WNW 03:24:54 10° SSW
H-2A R/B 2.9 03:16:37 10° NNE 03:21:37 54° E 03:26:43 10° S
